Weather History for Warroad, MN

Change the Weather History Date:

Monday, October 21, 2013

  Actual Average Record
Temperature  
Mean Temperature 30 °F -  
Max Temperature 35 °F 49 °F 78 °F (1953)
Min Temperature 26 °F 31 °F 15 °F (1981)
Degree Days  
Heating Degree Days 34    
Moisture  
Dew Point 27 °F    
Average Humidity 84    
Maximum Humidity 93    
Minimum Humidity 74    
Precipitation  
Precipitation 0.01 in - - ()
Sea Level Pressure  
Sea Level Pressure 29.86 in    
Wind  
Wind Speed 11 mph (WNW)    
Max Wind Speed 16 mph    
Max Gust Speed 24 mph    
Visibility 8 miles    
Events Snow    
Averages and records for this station are not official NWS values.
T = Trace of Precipitation, MM = Missing Value Source: NWS Daily Summary

Daily Weather History Graph

Daily Weather History Graph

Search for Another Location

Airport:

Trip Planner

Search our weather history database for the weather conditions in past years. The results will help you decide how hot, cold, wet, or windy it might be!

Date:

Astronomy

Oct. 21, 2013 Rise Set
Actual Time 7:51 AM CDT 6:19 PM CDT
Civil Twilight 7:19 AM CDT 6:51 PM CDT
Nautical Twilight 6:42 AM CDT 7:28 PM CDT
Astronomical Twilight 6:05 AM CDT 8:05 PM CDT
Moon 8:00 PM CDT (10/21) 10:39 AM CDT (10/21)
Length of Visible Light 11h 32m
Length of Day
10h 27m
Waning Gibbous, 92% of the Moon is Illuminated
Oct 21
Waning Gibbous
Oct 26
Last Quarter
Nov 3
New
Nov 9
First Quarter
Nov 17
Full

Hourly Weather History & Observations

Time (CDT) Temp. Windchill Dew Point Humidity Pressure Visibility Wind Dir Wind Speed Gust Speed Precip Events Conditions
12:14 AM 28.4 °F 19.1 °F 21.2 °F 74% 29.85 in 10.0 mi West 10.4 mph - N/A   Clear
12:33 AM 28.4 °F 19.7 °F 21.2 °F 74% 29.85 in 10.0 mi West 9.2 mph 16.1 mph N/A   Scattered Clouds
12:54 AM 28.4 °F 18.0 °F 21.2 °F 74% 29.84 in 10.0 mi West 12.7 mph 16.1 mph N/A   Overcast
1:14 AM 28.4 °F 17.5 °F 21.2 °F 74% 29.84 in 10.0 mi West 13.8 mph 20.7 mph N/A   Overcast
1:33 AM 28.4 °F 20.4 °F 23.0 °F 80% 29.84 in 10.0 mi West 8.1 mph - N/A   Overcast
1:54 AM 28.4 °F 18.5 °F 21.2 °F 74% 29.84 in 10.0 mi West 11.5 mph - N/A   Overcast
2:14 AM 28.4 °F 19.7 °F 21.2 °F 74% 29.83 in 10.0 mi West 9.2 mph - N/A   Overcast
2:33 AM 28.4 °F 20.4 °F 23.0 °F 80% 29.84 in 10.0 mi WSW 8.1 mph - N/A   Overcast
2:54 AM 28.4 °F 18.0 °F 23.0 °F 80% 29.84 in 10.0 mi West 12.7 mph 19.6 mph N/A Snow Light Snow
3:14 AM 28.4 °F 18.0 °F 23.0 °F 80% 29.83 in 7.0 mi West 12.7 mph 17.3 mph N/A Snow Light Snow
3:33 AM 28.4 °F 19.1 °F 21.2 °F 74% 29.83 in 7.0 mi West 10.4 mph 18.4 mph N/A Snow Light Snow
3:54 AM 28.4 °F 19.1 °F 23.0 °F 80% 29.83 in 5.0 mi West 10.4 mph 18.4 mph N/A Snow Light Snow
4:14 AM 26.6 °F 17.5 °F 24.8 °F 93% 29.83 in 1.5 mi West 9.2 mph - N/A Snow Light Snow
4:33 AM 26.6 °F 16.8 °F 23.0 °F 86% 29.82 in 1.2 mi West 10.4 mph - N/A Snow Light Snow
4:54 AM 26.6 °F 17.5 °F 23.0 °F 86% 29.81 in 1.5 mi West 9.2 mph - N/A Snow Light Snow
5:14 AM 26.6 °F 16.8 °F 23.0 °F 86% 29.81 in 2.5 mi West 10.4 mph 17.3 mph N/A Snow Light Snow
5:33 AM 26.6 °F 18.2 °F 24.8 °F 93% 29.81 in 2.5 mi West 8.1 mph 18.4 mph N/A Snow Light Snow
5:54 AM 28.4 °F 19.1 °F 24.8 °F 86% 29.81 in 7.0 mi West 10.4 mph - N/A   Overcast
6:14 AM 28.4 °F 20.4 °F 24.8 °F 86% 29.81 in 5.0 mi West 8.1 mph - N/A   Overcast
6:33 AM 28.4 °F 18.5 °F 24.8 °F 86% 29.81 in 4.0 mi West 11.5 mph - N/A   Overcast
6:54 AM 28.4 °F 19.7 °F 24.8 °F 86% 29.81 in 7.0 mi West 9.2 mph - N/A   Overcast
7:14 AM 28.4 °F 18.5 °F 24.8 °F 86% 29.80 in 10.0 mi West 11.5 mph 19.6 mph N/A   Overcast
7:34 AM 28.4 °F 18.0 °F 24.8 °F 86% 29.81 in 10.0 mi WNW 12.7 mph - N/A   Overcast
7:54 AM 28.4 °F 18.5 °F 24.8 °F 86% 29.81 in 10.0 mi WNW 11.5 mph - N/A   Overcast
8:14 AM 28.4 °F 17.5 °F 24.8 °F 86% 29.81 in 10.0 mi WNW 13.8 mph 18.4 mph N/A Snow Light Snow
8:34 AM 28.4 °F 17.5 °F 24.8 °F 86% 29.81 in 3.0 mi WNW 13.8 mph 19.6 mph N/A Snow Light Snow
8:54 AM 28.4 °F 18.5 °F 24.8 °F 86% 29.82 in 0.8 mi WNW 11.5 mph 17.3 mph N/A Snow Light Snow
9:14 AM 28.4 °F 19.1 °F 26.6 °F 93% 29.82 in 0.8 mi WNW 10.4 mph - 0.01 in Snow Light Snow
9:34 AM 30.2 °F 20.8 °F 26.6 °F 86% 29.82 in 3.0 mi West 11.5 mph 16.1 mph 0.01 in Snow Light Snow
9:54 AM 30.2 °F 19.8 °F 26.6 °F 86% 29.82 in 10.0 mi WNW 13.8 mph 20.7 mph 0.01 in   Overcast
10:14 AM 30.2 °F 21.3 °F 26.6 °F 86% 29.83 in 4.0 mi WNW 10.4 mph - N/A Snow Light Snow
10:34 AM 30.2 °F 21.3 °F 26.6 °F 86% 29.83 in 3.0 mi WNW 10.4 mph - N/A Snow Light Snow
10:54 AM 32.0 °F 23.0 °F 28.4 °F 87% 29.83 in 5.0 mi WNW 11.5 mph 18.4 mph N/A Snow Light Snow
11:14 AM 32.0 °F 22.5 °F 28.4 °F 87% 29.84 in 2.5 mi WNW 12.7 mph 18.4 mph N/A Snow Light Snow
11:33 AM 32.0 °F 22.5 °F 28.4 °F 87% 29.84 in 5.0 mi WNW 12.7 mph 20.7 mph N/A Snow Light Snow
11:54 AM 33.8 °F 23.9 °F 28.4 °F 81% 29.84 in 7.0 mi NW 15.0 mph 21.9 mph N/A Snow Light Snow
12:14 PM 33.8 °F 23.5 °F 28.4 °F 81% 29.84 in 10.0 mi NW 16.1 mph 24.2 mph N/A   Overcast
12:34 PM 33.8 °F 23.9 °F 30.2 °F 87% 29.85 in 10.0 mi NW 15.0 mph 21.9 mph N/A   Overcast
12:53 PM 33.8 °F 23.9 °F 30.2 °F 87% 29.85 in 10.0 mi NW 15.0 mph 24.2 mph N/A   Overcast
1:14 PM 33.8 °F 24.3 °F 30.2 °F 87% 29.85 in 10.0 mi NW 13.8 mph 20.7 mph N/A   Overcast
1:33 PM 35.6 °F 25.9 °F 30.2 °F 81% 29.84 in 10.0 mi NW 16.1 mph 19.6 mph N/A   Overcast
1:54 PM 35.6 °F 26.2 °F 30.2 °F 81% 29.85 in 10.0 mi NW 15.0 mph 20.7 mph N/A   Overcast
2:14 PM 35.6 °F 27.5 °F 30.2 °F 81% 29.85 in 10.0 mi NW 11.5 mph - N/A   Overcast
2:33 PM 35.6 °F 26.2 °F 30.2 °F 81% 29.85 in 10.0 mi NW 15.0 mph 20.7 mph N/A   Overcast
2:54 PM 35.6 °F 26.2 °F 30.2 °F 81% 29.85 in 10.0 mi NW 15.0 mph - N/A   Overcast
3:14 PM 35.6 °F 26.6 °F 30.2 °F 81% 29.86 in 10.0 mi WNW 13.8 mph 20.7 mph N/A   Overcast
3:33 PM 35.6 °F 26.2 °F 32.0 °F 87% 29.86 in 10.0 mi WNW 15.0 mph 19.6 mph N/A   Overcast
3:54 PM 35.6 °F 26.2 °F 30.2 °F 81% 29.86 in 10.0 mi WNW 15.0 mph - N/A   Overcast
4:14 PM 35.6 °F 28.6 °F 32.0 °F 87% 29.87 in 10.0 mi NW 9.2 mph 18.4 mph N/A   Overcast
4:34 PM 35.6 °F 28.6 °F 30.2 °F 81% 29.88 in 10.0 mi NW 9.2 mph 17.3 mph N/A   Overcast
4:54 PM 35.6 °F 27.5 °F 30.2 °F 81% 29.88 in 10.0 mi NW 11.5 mph - N/A   Overcast
5:14 PM 35.6 °F 27.5 °F 30.2 °F 81% 29.88 in 10.0 mi NW 11.5 mph - N/A   Overcast
5:33 PM 35.6 °F 27.5 °F 30.2 °F 81% 29.89 in 10.0 mi WNW 11.5 mph 18.4 mph N/A   Overcast
5:54 PM 35.6 °F 27.5 °F 30.2 °F 81% 29.90 in 10.0 mi WNW 11.5 mph - N/A   Overcast
6:14 PM 35.6 °F 29.2 °F 30.2 °F 81% 29.90 in 10.0 mi WNW 8.1 mph - N/A   Overcast
6:34 PM 35.6 °F 28.6 °F 30.2 °F 81% 29.91 in 10.0 mi WNW 9.2 mph - N/A   Overcast
6:54 PM 35.6 °F 28.6 °F 28.4 °F 75% 29.91 in 10.0 mi WNW 9.2 mph - N/A   Overcast
7:14 PM 35.6 °F 29.2 °F 30.2 °F 81% 29.91 in 10.0 mi WNW 8.1 mph - N/A   Overcast
7:34 PM 33.8 °F 27.7 °F 30.2 °F 87% 29.92 in 10.0 mi WNW 6.9 mph - N/A   Overcast
7:54 PM 33.8 °F 27.7 °F 30.2 °F 87% 29.92 in 10.0 mi WNW 6.9 mph - N/A   Overcast
8:14 PM 33.8 °F 26.4 °F 30.2 °F 87% 29.92 in 10.0 mi WNW 9.2 mph - N/A   Overcast
8:34 PM 33.8 °F 27.7 °F 30.2 °F 87% 29.92 in 10.0 mi WNW 6.9 mph - N/A   Overcast
8:54 PM 33.8 °F 28.6 °F 30.2 °F 87% 29.92 in 10.0 mi WNW 5.8 mph - N/A   Overcast
9:14 PM 33.8 °F 27.7 °F 28.4 °F 81% 29.92 in 10.0 mi NW 6.9 mph - N/A   Overcast
9:34 PM 33.8 °F 28.6 °F 30.2 °F 87% 29.92 in 10.0 mi WNW 5.8 mph - N/A   Overcast
9:54 PM 33.8 °F 27.7 °F 30.2 °F 87% 29.93 in 10.0 mi NW 6.9 mph - N/A   Overcast
10:14 PM 33.8 °F 27.0 °F 30.2 °F 87% 29.93 in 10.0 mi NW 8.1 mph - N/A   Overcast
10:34 PM 33.8 °F 27.7 °F 30.2 °F 87% 29.94 in 10.0 mi NW 6.9 mph - N/A   Overcast
10:54 PM 33.8 °F 27.0 °F 30.2 °F 87% 29.94 in 5.0 mi NW 8.1 mph - N/A Snow Light Snow
11:14 PM 33.8 °F 27.7 °F 30.2 °F 87% 29.94 in 10.0 mi NW 6.9 mph - N/A   Overcast
11:34 PM 33.8 °F 27.7 °F 30.2 °F 87% 29.94 in 10.0 mi NW 6.9 mph - N/A   Overcast
11:53 PM 33.8 °F 28.6 °F 30.2 °F 87% 29.94 in 10.0 mi NW 5.8 mph - N/A   Overcast